Theta_e
309 308 307 307 306 304 300 294 292 305 301 289 289 288 294 296 296 299 295 294 292 289 289 287 286 287 291 297 295 289 290 285 281 285 292 293 290 286 285 276 277 281 278 280
308 306 306 306 306 305 298 292 293 303 300 283 285 290 293 295 294 296 293 292 292 292 287 284 289 291 297 297 293 289 290 283 281 282 286 291 288 289 289 286 285 278 278 280
307 305 306 306 305 305 296 293 288 292 294 292 288 287 290 290 298 296 294 292 292 290 288 289 287 288 294 295 296 299 296 289 285 280 284 288 285 287 289 287 281 281 282 283
306 305 305 305 304 304 297 292 288 289 284 286 287 288 290 290 289 293 292 290 291 288 283 286 285 289 290 294 298 295 293 286 288 288 289 289 288 287 288 286 286 281 284 284
304 304 304 304 304 304 295 288 286 288 286 288 288 289 287 289 291 290 289 287 290 289 284 286 284 287 288 287 292 289 294 286 288 284 288 288 286 289 289 288 288 287 287 285
303 303 303 304 304 301 291 294 293 291 287 285 284 285 287 288 291 291 293 290 288 288 290 293 293 293 293 292 289 286 288 286 285 280 286 285 282 288 290 290 291 288 283 288
303 302 303 303 303 301 293 292 296 286 281 285 286 289 288 289 290 288 292 291 288 293 297 296 294 293 293 293 292 290 287 286 285 281 282 275 288 294 293 290 292 293 292 294
302 302 302 302 302 302 292 293 291 293 286 286 287 289 288 289 290 289 290 293 293 294 292 288 287 286 290 293 291 288 292 288 282 279 278 284 289 292 290 288 287 292 290 292
302 302 302 302 301 302 293 292 296 296 290 284 291 288 289 285 284 287 291 294 295 292 290 288 281 279 286 282 289 295 293 292 285 282 276 274 288 293 295 294 282 293 292 291
302 302 302 302 301 302 297 291 292 292 289 290 290 286 285 287 286 287 289 291 289 291 287 280 280 282 290 280 279 282 286 286 282 281 280 282 292 293 295 282 283 292 293 293
301 301 302 301 302 302 299 294 295 291 289 289 292 292 288 287 288 286 287 287 288 285 283 286 284 282 286 283 286 277 279 280 281 284 281 277 294 292 286 291 294 295 294 294
301 301 301 302 301 301 302 292 296 296 291 289 294 294 295 294 293 290 286 289 290 291 287 289 288 286 286 283 277 288 282 286 285 285 283 291 294 291 294 297 294 294 294 296
301 301 301 301 301 301 300 296 294 291 289 288 287 289 294 296 296 298 289 291 293 293 296 292 290 286 289 283 284 287 292 294 286 287 290 289 292 296 297 298 296 297 299 298
300 301 301 301 302 301 302 296 294 294 291 285 285 295 294 298 297 297 298 297 299 296 297 293 290 286 292 287 289 287 290 292 291 289 293 293 293 294 296 297 298 298 301 301
300 301 301 301 301 301 300 296 294 295 290 283 285 292 294 297 296 299 298 297 296 295 293 291 289 292 291 292 292 289 295 293 289 287 294 291 292 296 298 297 297 299 299 299
300 301 301 301 301 301 295 288 300 296 296 290 283 290 292 296 300 300 298 298 297 297 294 293 293 296 291 288 287 295 299 300 298 295 297 295 297 298 298 297 298 299 299 301
301 301 301 301 301 296 291 289 295 300 300 291 286 286 291 297 300 302 299 299 299 298 295 292 293 294 294 290 287 296 299 299 299 299 296 295 297 294 297 298 298 299 300 300
300 300 301 301 302 300 296 296 303 302 296 295 286 286 287 296 291 292 301 297 298 296 295 295 292 294 294 289 296 299 299 297 296 295 296 297 299 297 297 298 298 297 296 297
301 301 302 299 296 295 298 306 305 303 296 288 288 284 281 293 291 292 293 298 292 297 291 292 294 292 288 296 296 298 295 292 293 295 294 296 297 296 296 296 296 295 295 296
301 299 295 294 297 308 304 298 295 294 294 293 287 291 287 293 293 292 292 292 293 288 292 297 291 290 299 300 300 299 296 296 294 292 291 292 296 295 296 295 296 296 295 295
291 287 288 292 299 293 290 287 290 289 287 289 290 290 289 294 291 290 293 288 290 288 289 292 291 287 296 301 300 298 296 295 294 294 295 295 297 296 296 296 297 296 295 294
292 291 293 291 292 290 287 286 292 288 287 290 289 289 290 291 294 293 290 287 291 285 296 292 286 293 300 302 301 296 294 295 294 295 296 296 298 298 297 297 296 296 296 295
295 292 289 289 288 280 285 282 283 282 287 289 287 284 288 291 290 287 290 287 287 292 285 289 289 292 297 298 302 297 295 295 295 295 296 297 297 299 298 296 297 297 295 295
291 290 277 284 284 286 285 282 283 286 286 286 285 283 284 286 284 286 285 289 287 284 282 283 287 289 291 295 303 299 296 295 294 295 296 295 296 295 298 297 297 296 294 294
289 288 277 284 287 286 285 285 284 286 286 284 283 283 284 283 283 288 287 285 282 283 281 285 286 287 293 303 303 303 299 295 294 295 295 295 295 294 294 296 296 297 295 294
290 287 284 285 284 283 283 283 283 286 285 285 284 283 283 285 286 284 281 279 278 281 285 287 289 291 295 301 302 302 303 297 295 295 296 296 295 294 294 296 297 296 296 294
289 285 287 285 284 283 283 284 285 287 285 281 283 281 282 286 282 281 283 281 284 287 289 291 292 292 293 299 303 304 303 303 298 296 296 296 296 296 295 293 295 296 297 296
Wind_Speed
20 22 25 26 26 26 9 4 3 4 5 5 1 0 3 6 12 9 4 3 2 1 3 4 3 5 3 4 2 2 3 3 6 15 20 16 12 9 6 5 5 5 3 11
20 22 23 25 25 19 5 4 4 4 6 3 4 6 6 3 5 7 7 5 2 2 3 4 3 4 6 4 5 3 1 3 7 7 2 3 3 2 3 1 2 7 4 7
19 21 23 25 26 23 2 2 4 6 5 1 2 5 5 6 5 2 6 4 6 5 4 1 6 7 4 8 4 5 5 5 11 13 17 8 11 16 15 12 7 3 10 16
20 20 22 24 27 30 3 4 1 1 5 4 6 2 3 6 5 3 4 4 3 2 3 7 8 4 13 4 6 7 6 6 11 17 23 22 22 20 20 18 15 13 14 21
19 19 20 22 25 28 5 3 3 4 3 6 5 4 3 5 5 6 6 3 8 7 6 9 19 14 7 7 6 4 4 5 8 16 19 16 19 19 20 19 20 17 20 24
17 17 18 18 20 14 4 3 3 1 4 5 3 1 4 8 12 9 4 7 6 6 9 10 13 13 15 14 11 6 6 2 3 7 11 15 6 6 5 9 12 8 12 15
14 16 16 16 15 10 0 3 2 3 5 2 4 9 14 10 10 10 11 5 3 4 12 15 12 11 16 14 9 8 7 3 3 7 7 4 3 8 8 13 4 7 8 10
13 14 14 14 13 13 2 3 3 2 5 4 13 2 5 9 7 6 12 3 5 5 7 4 7 6 4 1 5 5 4 3 4 4 3 10 5 5 5 8 20 2 9 13
12 13 13 13 13 12 2 3 2 3 3 5 5 6 4 4 5 6 5 10 5 5 3 3 3 3 3 4 2 6 4 5 4 2 4 4 2 3 12 11 16 6 14 16
12 13 13 13 12 11 4 3 1 2 4 7 2 5 3 2 4 5 7 7 7 3 3 1 2 4 3 1 1 4 3 4 8 7 6 7 3 9 12 6 6 20 15 16
12 12 13 13 13 12 5 5 2 3 4 12 11 11 13 4 4 4 5 7 4 4 5 2 3 2 4 4 3 4 5 2 4 3 4 6 2 4 7 8 19 14 16 20
13 13 13 13 12 12 10 3 3 1 5 8 15 18 20 18 25 13 3 7 5 3 3 3 3 2 2 2 4 1 3 5 3 6 6 1 6 6 13 7 12 17 14 16
13 14 14 14 14 12 9 3 2 1 4 8 3 6 6 4 11 12 6 3 7 4 3 1 3 5 1 3 4 5 4 2 5 2 5 9 8 5 7 9 14 18 15 17
15 15 15 15 15 13 12 4 3 1 4 5 9 6 15 13 10 7 19 6 2 4 2 3 3 3 3 3 9 11 9 5 5 6 8 11 6 8 11 10 16 16 12 13
15 16 16 16 15 15 9 7 4 6 2 4 9 17 6 9 6 5 14 11 4 2 2 3 3 3 2 4 4 5 4 5 2 4 5 3 11 13 10 11 15 12 12 13
17 15 17 16 14 13 2 4 2 5 5 4 6 5 8 15 14 5 13 10 3 3 3 2 3 3 2 4 4 5 3 8 7 4 5 6 6 12 13 12 10 12 10 10
18 16 16 16 13 2 3 3 3 4 1 2 5 7 7 7 3 4 3 2 3 3 3 4 3 3 5 4 5 5 12 9 4 7 6 4 8 6 13 10 10 9 7 7
20 19 18 16 12 8 5 4 10 5 2 1 3 6 6 4 4 4 2 3 3 3 2 2 3 2 4 5 5 13 8 5 4 5 5 4 3 9 12 8 8 7 8 10
22 23 15 1 2 2 2 4 8 2 2 1 2 3 5 5 4 4 3 2 2 2 3 3 2 2 5 4 2 9 2 2 3 6 8 4 3 7 11 10 9 8 9 9
23 1 2 1 2 7 7 2 2 1 1 1 2 3 4 4 3 4 3 1 1 2 4 2 3 4 4 4 6 3 1 4 4 5 11 5 1 6 9 10 9 8 9 9
5 4 1 3 8 1 1 2 2 2 1 1 3 5 5 3 4 4 2 4 3 2 3 3 1 3 4 2 4 2 4 4 4 5 5 6 4 5 7 7 9 10 10 9
2 5 4 3 1 2 2 2 4 3 2 3 4 6 6 4 1 3 4 3 4 4 2 2 3 5 12 12 2 4 4 2 3 5 7 8 4 3 4 5 7 8 6 9
1 1 2 2 2 2 1 3 3 3 1 3 3 6 3 3 1 2 2 4 4 7 2 2 4 15 17 19 9 3 5 3 5 4 6 6 6 3 3 5 7 7 9 9
2 3 4 3 1 2 3 1 1 3 1 5 4 4 3 3 1 1 3 4 4 4 9 5 9 21 23 23 6 3 5 3 5 6 5 5 7 7 5 7 7 9 11 10
3 1 2 3 2 2 2 2 2 3 2 3 5 4 2 4 3 1 3 5 7 7 5 6 13 23 26 9 13 7 2 3 4 4 6 5 5 7 6 5 5 9 10 10
2 2 1 2 4 4 4 2 2 3 4 4 2 3 5 5 5 5 7 4 3 4 6 8 13 20 22 10 10 9 8 2 5 4 5 5 5 6 6 5 6 8 10 11
2 3 2 3 3 3 1 2 2 3 4 2 2 5 2 2 5 4 4 6 6 7 10 11 16 18 22 17 9 10 11 6 2 2 3 5 4 5 6 6 5 6 7 8
Wind_Direction
347 345 342 343 346 347 16 353 43 286 53 46 41 180 326 314 347 346 316 80 55 88 301 275 269 234 255 100 160 295 165 240 276 274 277 273 257 265 174 146 232 238 218 263
351 346 345 343 345 360 324 340 273 324 80 76 337 308 325 328 328 4 22 322 116 281 270 302 245 289 309 176 193 200 153 253 294 292 300 45 87 186 133 127 148 215 222 267
350 348 345 345 343 347 98 11 8 330 30 77 49 357 285 328 299 57 22 345 4 18 337 359 291 293 274 324 254 170 151 236 244 267 277 281 274 272 271 235 217 227 238 287
350 352 351 350 347 341 94 25 6 104 314 327 326 268 281 306 349 29 40 333 326 72 291 301 254 290 311 299 241 148 138 263 260 271 272 275 278 271 272 258 242 238 265 256
350 355 353 354 355 343 63 74 24 346 296 296 316 353 339 314 340 339 303 219 286 271 243 230 280 278 278 241 241 144 156 263 291 287 279 272 274 266 262 258 255 248 252 264
350 351 358 1 4 9 30 324 338 41 283 317 329 207 -0 311 310 291 301 292 290 272 271 294 266 252 257 243 252 172 166 229 278 276 306 310 285 319 322 313 250 245 253 266
349 348 353 358 10 29 218 274 324 48 281 297 255 306 305 293 304 271 285 304 283 305 313 296 273 258 254 254 247 150 162 189 229 280 317 316 173 19 6 337 350 345 328 333
347 345 346 350 357 360 100 284 4 280 280 259 294 272 307 300 294 279 300 282 230 286 288 289 315 326 353 138 155 152 133 142 265 273 240 280 291 36 353 354 302 41 339 327
339 341 339 344 348 346 29 267 233 276 313 255 269 329 275 286 315 308 258 316 298 311 246 234 254 269 272 309 108 162 175 211 206 255 255 253 111 9 324 294 275 54 336 335
330 335 335 335 341 332 339 269 64 302 273 267 197 228 246 287 281 268 287 320 326 14 344 18 231 260 273 326 285 193 242 244 241 252 249 274 75 320 305 269 297 325 339 327
323 328 329 327 330 325 346 268 239 172 258 284 257 266 258 269 219 243 296 357 345 350 10 347 323 337 327 332 272 212 198 214 236 250 259 280 99 20 311 293 303 305 316 301
317 320 321 319 322 320 324 273 304 303 241 255 302 270 250 246 248 263 216 236 300 283 352 13 326 301 311 324 289 354 276 207 244 209 238 285 337 237 279 276 288 304 295 287
311 314 317 315 315 312 300 263 248 329 265 289 310 268 263 238 230 217 205 239 211 220 187 116 265 257 177 264 252 276 284 182 243 275 259 255 285 293 263 280 297 297 294 285
309 310 313 310 310 311 305 274 214 197 266 277 277 305 304 297 270 217 198 196 87 132 135 213 236 250 183 263 280 281 257 257 238 253 281 305 307 321 307 309 297 299 312 299
305 309 310 308 311 312 305 270 223 184 219 285 296 310 271 279 292 257 194 203 181 164 178 218 228 234 258 246 246 242 196 231 253 259 272 268 311 307 308 310 309 314 316 317
304 310 309 303 307 314 313 342 72 177 186 290 307 286 293 309 324 210 185 196 178 163 201 217 233 268 90 270 270 266 281 263 213 260 251 234 305 321 343 305 308 314 317 313
303 311 308 298 293 265 220 208 232 331 296 265 296 308 285 309 36 348 18 134 212 168 194 225 223 210 195 245 251 281 265 277 221 256 299 301 333 352 329 324 324 318 326 336
306 310 302 287 280 276 259 253 252 186 249 279 307 284 309 330 315 294 201 203 171 207 227 213 227 219 212 262 306 270 265 204 267 331 335 244 96 7 340 335 337 344 359 359
310 311 300 125 178 225 220 132 88 63 111 322 263 297 294 331 290 266 324 195 238 153 230 235 209 245 234 216 102 290 137 137 346 336 346 25 86 13 347 355 356 358 -0 10
313 301 152 130 223 133 114 117 158 88 58 245 261 269 268 314 278 284 330 253 253 246 226 221 207 256 280 210 230 295 146 68 8 333 11 357 332 14 12 1 360 10 3 11
32 7 346 279 291 56 176 190 191 118 258 214 250 241 270 255 259 278 261 292 249 274 268 256 312 319 322 334 279 203 118 67 4 351 25 28 84 36 14 8 356 16 12 12
282 276 286 286 289 214 253 220 126 187 235 223 243 269 212 267 233 297 303 280 309 248 306 274 19 340 343 344 205 180 141 128 28 18 53 36 127 64 17 19 29 13 16 29
253 233 262 103 260 24 177 315 356 346 253 267 291 315 254 297 47 278 312 296 278 322 353 60 39 334 333 322 304 214 174 136 74 60 68 56 57 138 35 8 27 31 31 29
225 193 324 167 274 309 43 110 177 255 299 303 288 277 249 276 58 22 293 312 313 344 16 3 330 324 315 308 192 222 168 139 90 72 82 54 42 40 73 41 18 31 39 34
252 137 234 221 232 81 152 146 62 300 261 327 323 294 172 275 81 22 340 329 35 21 2 303 313 317 319 42 50 356 23 170 73 94 80 79 45 38 48 41 24 34 41 39
237 235 334 301 63 350 14 32 329 304 328 331 12 335 20 357 330 60 21 19 18 300 317 314 317 326 327 19 21 8 358 111 106 119 91 103 83 58 55 71 32 44 46 36
248 257 234 167 179 163 25 89 309 295 48 318 13 7 342 266 37 39 15 349 314 311 325 326 323 334 340 340 347 8 350 357 68 78 121 127 113 88 70 69 52 52 59 47